Somerville, NJ

10:18 PM EDT on June 23, 2017 (GMT -0400)
Somerset

Weather History for KSMQ - May, 2014

Change the Weather History Date:

Sunday, May 18, 2014

  Actual Average Record
Temperature  
Mean Temperature 52 °F -  
Max Temperature 66 °F 73 °F 94 °F (1962)
Min Temperature 39 °F 49 °F 33 °F (1983)
Degree Days  
Heating Degree Days 12    
Growing Degree Days 2 (Base 50)    
Moisture  
Dew Point 39 °F    
Average Humidity 67    
Maximum Humidity 93    
Minimum Humidity 27    
Precipitation  
Precipitation 0.00 in - - ()
Sea Level Pressure  
Sea Level Pressure 30.15 in    
Wind  
Wind Speed 2 mph (NW)    
Max Wind Speed 13 mph    
Max Gust Speed 17 mph    
Visibility 8 miles    
Events      
Averages and records for this station are not official NWS values.
T = Trace of Precipitation, MM = Missing Value Source: NWS Daily Summary

Daily Weather History Graph

Daily Weather History Graph

Search for Another Location

Airport or City:

Trip Planner

Search our weather history database for the weather conditions in past years. The results will help you decide how hot, cold, wet, or windy it might be!

Date:

Astronomy

May. 18, 2014 Rise Set
Actual Time 5:39 AM EDT 8:11 PM EDT
Civil Twilight 5:07 AM EDT 8:43 PM EDT
Nautical Twilight 4:28 AM EDT 9:22 PM EDT
Astronomical Twilight 3:45 AM EDT 10:06 PM EDT
Moon 11:57 PM EDT (5/18) 9:25 AM EDT (5/18)
Length of Visible Light 15h 35m
Length of Day
14h 32m
Waning Gibbous, 81% of the Moon is Illuminated
May 18
Waning Gibbous
May 21
Last Quarter
May 28
New
Jun 5
First Quarter
Jun 13
Full

Hourly Weather History & Observations

Time (EDT) Temp. Dew Point Humidity Pressure Visibility Wind Dir Wind Speed Gust Speed Precip Events Conditions
12:53 AM 46.9 °F 44.1 °F 90% 30.12 in 7.0 mi Calm Calm - N/A   Clear
1:53 AM 46.0 °F 42.1 °F 86% 30.12 in 8.0 mi Calm Calm - N/A   Clear
2:53 AM 44.1 °F 41.0 °F 89% 30.12 in 6.0 mi Calm Calm - N/A   Clear
3:47 AM 42.8 °F 39.2 °F 87% 30.13 in 1.8 mi Calm Calm - N/A   Clear
3:53 AM 42.1 °F 39.9 °F 92% 30.14 in 0.8 mi Calm Calm - N/A   Clear
3:59 AM 42.1 °F 39.9 °F 92% 30.14 in 2.5 mi Calm Calm - N/A   Clear
4:06 AM 43.0 °F 39.9 °F 89% 30.13 in 7.0 mi Calm Calm - N/A   Clear
4:34 AM 42.1 °F 39.0 °F 89% 30.14 in 2.5 mi Calm Calm - N/A   Clear
4:41 AM 42.1 °F 39.9 °F 92% 30.14 in 7.0 mi Calm Calm - N/A   Clear
4:53 AM 42.1 °F 39.0 °F 89% 30.14 in 7.0 mi Calm Calm - N/A   Clear
5:44 AM 42.1 °F 39.0 °F 89% 30.15 in 6.0 mi Calm Calm - N/A   Partly Cloudy
5:53 AM 41.0 °F 39.0 °F 93% 30.16 in 6.0 mi Calm Calm - N/A   Clear
6:08 AM 39.9 °F 37.9 °F 93% 30.16 in 2.5 mi Calm Calm - N/A   Clear
6:18 AM 41.0 °F 39.0 °F 93% 30.17 in 5.0 mi Calm Calm - N/A   Clear
6:53 AM 45.0 °F 42.1 °F 90% 30.19 in 9.0 mi Calm Calm - N/A   Clear
7:53 AM 51.1 °F 45.0 °F 80% 30.19 in 10.0 mi Calm Calm - N/A   Clear
8:53 AM 57.0 °F 44.1 °F 62% 30.19 in 10.0 mi Calm Calm - N/A   Clear
9:53 AM 60.1 °F 42.1 °F 51% 30.18 in 10.0 mi Variable 4.6 mph - N/A   Clear
10:53 AM 62.1 °F 39.0 °F 43% 30.17 in 10.0 mi NNW 9.2 mph - N/A   Scattered Clouds
11:53 AM 63.0 °F 37.0 °F 38% 30.17 in 10.0 mi NW 6.9 mph 17.3 mph N/A   Scattered Clouds
12:53 PM 66.0 °F 36.0 °F 33% 30.15 in 10.0 mi WNW 9.2 mph - N/A   Mostly Cloudy
1:53 PM 64.9 °F 35.1 °F 33% 30.14 in 10.0 mi North - - N/A   Mostly Cloudy
2:53 PM 64.0 °F 37.0 °F 37% 30.14 in 10.0 mi Variable 5.8 mph - N/A   Overcast
3:53 PM 64.9 °F 36.0 °F 34% 30.13 in 10.0 mi Variable 6.9 mph 17.3 mph N/A   Mostly Cloudy
4:53 PM 64.9 °F 35.1 °F 33% 30.13 in 10.0 mi Variable 5.8 mph - N/A   Mostly Cloudy
5:53 PM 66.0 °F 30.9 °F 27% 30.13 in 10.0 mi NW 12.7 mph 17.3 mph N/A   Clear
6:53 PM 64.0 °F 33.1 °F 31% 30.13 in 10.0 mi NNW 9.2 mph - N/A   Scattered Clouds
7:53 PM 61.0 °F 30.9 °F 32% 30.14 in 10.0 mi NNW 10.4 mph - N/A   Clear
8:53 PM 55.9 °F 36.0 °F 47% 30.16 in 10.0 mi NNW 3.5 mph - N/A   Clear
9:53 PM 50.0 °F 39.0 °F 66% 30.17 in 10.0 mi Calm Calm - N/A   Clear
10:53 PM 46.9 °F 39.0 °F 74% 30.17 in 10.0 mi Calm Calm - N/A   Clear
11:53 PM 45.0 °F 39.0 °F 80% 30.17 in 10.0 mi Calm Calm - N/A   Clear